WX9EMS Weather Reports


time (UTC)temp
C
wind
direction
speed
KPH
gust
KPH
rain 1hr
cm
rain 24hr
cm
rain mn
cm
humidity
%
barometer
mb
20260505230030 12 280 12.9 16.1 0.00 0.00 0.00 46 1010.1
20260505225223 12 270 14.5 14.5 0.00 0.00 0.00 46 1010.2
20260505224145 12 270 16.1 17.7 0.00 0.00 0.00 46 1010.1
20260505223356 13 293 9.7 11.3 0.00 0.00 0.00 45 1010.0
20260505222049 13 17.7 17.7 0.00 0.00 0.00 45 1009.9
20260505221108 13 17.7 17.7 0.00 0.00 0.00 44 1009.9
20260505220625 13 302 17.7 20.9 0.00 0.00 0.00 44 1009.9
20260505215049 14 277 16.1 20.9 0.00 0.00 0.00 42 1009.8
20260505214049 15 305 16.1 20.9 0.00 0.00 0.00 42 1009.9
20260505213028 13 293 16.1 20.9 0.00 0.00 0.00 43 1009.9
20260505212028 14 282 17.7 29.0 0.00 0.00 0.00 42 1009.8
20260505211027 14 276 16.1 19.3 0.00 0.00 0.00 43 1009.9
20260505210027 15 296 16.1 20.9 0.00 0.00 0.00 42 1010.0
20260505205028 14 284 12.9 16.1 0.00 0.00 0.00 43 1010.0
20260505204026 13 284 17.7 20.9 0.00 0.00 0.00 43 1010.1
20260505203027 14 292 17.7 20.9 0.00 0.00 0.00 42 1010.3
20260505202046 14 286 19.3 24.1 0.00 0.00 0.00 43 1010.2
20260505201106 14 282 20.9 29.0 0.00 0.00 0.00 42 1010.3
20260505200025 15 294 20.9 24.1 0.00 0.00 0.00 40 1010.4
20260505195025 13 288 22.5 27.4 0.00 0.00 0.00 41 1010.4
20260505194024 13 279 20.9 27.4 0.00 0.00 0.00 42 1010.5
20260505193024 14 304 20.9 24.1 0.00 0.00 0.00 40 1010.5
20260505192023 14 286 17.7 20.9 0.00 0.00 0.00 40 1010.6
20260505191023 13 270 17.7 24.1 0.00 0.00 0.00 39 1010.6
20260505185216 14 282 12.9 14.5 0.00 0.00 0.00 37 1010.5
20260505184022 14 270 17.7 24.1 0.00 0.00 0.00 39 1010.5
20260505183040 14 298 14.5 17.7 0.00 0.00 0.00 38 1010.5
20260505182021 13 278 17.7 20.9 0.00 0.00 0.00 39 1010.5
20260505181021 13 280 17.7 22.5 0.00 0.00 0.00 41 1010.4
20260505180039 13 317 16.1 17.7 0.00 0.00 0.00 42 1010.2
20260505175020 12 287 17.7 20.9 0.00 0.00 0.00 42 1010.2
20260505174040 12 293 16.1 19.3 0.00 0.00 0.00 44 1010.2
20260505173020 12 319 20.9 24.1 0.00 0.00 0.00 45 1010.3
20260505172019 12 280 16.1 19.3 0.00 0.00 0.00 42 1010.2
20260505171019 13 289 17.7 25.7 0.00 0.00 0.00 42 1010.2
20260505170038 13 298 14.5 24.1 0.00 0.00 0.00 43 1010.2
20260505165037 13 294 16.1 20.9 0.00 0.00 0.00 42 1010.0
20260505164037 12 286 20.9 27.4 0.00 0.00 0.00 43 1009.9
20260505163036 13 287 17.7 25.7 0.00 0.00 0.00 43 1009.7
20260505162056 12 282 20.9 27.4 0.00 0.00 0.00 44 1010.0
20260505161131 12 291 17.7 24.1 0.00 0.00 0.00 45 1010.1
20260505153034 11 285 19.3 25.7 0.00 0.00 0.00 48 1010.0
20260505152130 11 280 16.1 19.3 0.00 0.00 0.00 46 1010.0
20260505151033 12 283 12.9 19.3 0.00 0.00 0.00 45 1010.1
20260505123800 8 321 4.8 6.4 0.00 0.00 0.00 60 1010.0
20260505122607 -17 303 6.4 6.4 0.00 0.00 0.00
20260505115607 8 290 9.7 9.7 0.00 0.00 0.00 61 1009.8
20260505114125 7 295 9.7 11.3 0.00 0.00 0.00 60 1009.8
20260505113106 7 299 8.0 9.7 0.00 0.00 0.00 59 1009.0
20260505112048 7 358 8.0 11.3 0.00 0.00 0.00 59 1008.1
20260505111143 7 317 9.7 11.3 0.00 0.00 0.00 61 1008.3
20260505110529 7 11.3 11.3 0.00 0.00 0.00 62 1008.7
20260505102028 7 352 6.4 8.0 0.00 0.00 0.00 68 1008.3
20260505101028 7 11 4.8 8.0 0.00 0.00 0.00 67 1008.0
20260505100028 7 12 6.4 9.7 0.00 0.00 0.00 66 1008.1
20260505095028 8 1 6.4 9.7 0.00 0.00 0.00 65 1007.8
20260505094028 8 35 4.8 8.0 0.00 0.00 0.00 65 1007.4
20260505093048 8 20 6.4 9.7 0.00 0.00 0.00 65 1007.4
20260505092108 8 1 4.8 8.0 0.00 0.00 0.00 64 1008.0
20260505091027 8 8 8.0 12.9 0.00 0.00 0.00 63 1007.9
20260505090028 8 344 11.3 17.7 0.00 0.00 0.00 63 1007.9
20260505085027 8 6 8.0 11.3 0.00 0.00 0.00 63 1007.3
20260505084028 8 342 9.7 19.3 0.00 0.00 0.00 63 1007.2
20260505083027 8 9 9.7 14.5 0.00 0.00 0.00 63 1006.9
20260505082027 9 37 6.4 9.7 0.00 0.00 0.00 65 1006.4
20260505081027 9 338 8.0 12.9 0.00 0.00 0.00 64 1006.3
20260505080027 10 347 9.7 11.3 0.00 0.00 0.00 63 1005.9
20260505075047 10 306 11.3 14.5 0.00 0.00 0.00 61 1005.9
20260505074046 10 353 9.7 17.7 0.00 0.00 0.00 61 1005.3
20260505073045 10 359 11.3 16.1 0.00 0.00 0.00 60 1005.0
20260505072026 10 356 11.3 22.5 0.00 0.00 0.00 60 1005.3
20260505071026 11 3 12.9 20.9 0.00 0.00 0.00 59 1005.4
20260505070026 11 15 12.9 19.3 0.00 0.00 0.00 60 1005.1
20260505065026 11 356 11.3 16.1 0.00 0.00 0.00 60 1005.2
20260505064026 11 347 11.3 17.7 0.00 0.00 0.00 59 1004.6
20260505063046 12 330 6.4 9.7 0.00 0.00 0.00 58 1004.5
20260505062025 12 343 9.7 12.9 0.00 0.00 0.00 57 1004.3
20260505061025 12 329 11.3 17.7 0.00 0.00 0.00 56 1004.3
20260505060025 12 337 11.3 17.7 0.00 0.00 0.00 55 1003.9
20260505055045 13 326 14.5 17.7 0.00 0.00 0.00 54 1004.1
20260505054024 13 325 14.5 20.9 0.00 0.00 0.00 53 1004.0
20260505053024 13 316 14.5 22.5 0.00 0.00 0.00 51 1004.0
20260505052025 14 310 11.3 16.1 0.00 0.00 0.00 50 1003.7
20260505051024 14 324 12.9 16.1 0.00 0.00 0.00 50 1003.6
20260505041523 15 297 19.3 32.2 0.00 0.00 0.00 45 1003.0
20260505040523 15 295 14.5 19.3 0.00 0.00 0.00 45 1002.9
20260505040005 16 302 22.5 29.0 0.00 0.00 0.00 45 1002.6
20260505034542 16 290 16.1 20.9 0.00 0.00 0.00 46 1002.6
20260505033522 16 292 14.5 20.9 0.00 0.00 0.00 47 1002.5
20260505032541 16 338 12.9 14.5 0.00 0.00 0.00 49 1002.4
20260505031542 16 315 11.3 14.5 0.00 0.00 0.00 53 1002.3
20260505030540 16 310 8.0 12.9 0.00 0.00 0.00 52 1002.1
20260505025522 17 313 11.3 16.1 0.00 0.00 0.00 50 1002.0
20260505024542 17 327 14.5 17.7 0.00 0.00 0.00 49 1002.0
20260505023521 18 303 20.9 32.2 0.00 0.00 0.00 47 1001.8
20260505022521 19 302 20.9 25.7 0.00 0.00 0.00 47 1001.5
20260505022117 20 305 20.9 24.1 0.00 0.00 0.00 47 1001.5
20260505020521 20 305 12.9 16.1 0.00 0.00 0.00 48 1001.1
20260505015735 20 22.5 22.5 0.00 0.00 0.00 47 1000.6
20260505014020 21 338 16.1 19.3 0.00 0.00 0.00 52 1000.3
20260505013020 21 315 16.1 17.7 0.00 0.00 0.00 55 1000.1